| time (UTC) | temp F | wind direction | speed MPH | gust MPH | rain 1hr in | rain 24hr in | rain mn in | humidity % | barometer mb |
| 20260504222034 | 59 | 165 | 2.0 | 7.0 | 0.00 | 0.00 | 0.00 | 56 | 1004.8 |
| 20260504221650 | 59 | 162 | 0.0 | 10.0 | 0.00 | 0.00 | 0.00 | 56 | 1004.9 |
| 20260504221534 | 59 | 136 | 2.0 | 10.0 | 0.00 | 0.00 | 0.00 | 55 | 1004.8 |
| 20260504221034 | 59 | 119 | 3.0 | 10.0 | 0.00 | 0.00 | 0.00 | 56 | 1004.8 |
| 20260504220534 | 60 | 123 | 3.0 | 9.0 | 0.00 | 0.00 | 0.00 | 55 | 1004.8 |
| 20260504220137 | 60 | 104 | 3.0 | 12.0 | 0.00 | 0.00 | 0.00 | 55 | 1004.9 |
| 20260504220033 | 60 | 133 | 3.0 | 12.0 | 0.00 | 0.00 | 0.00 | 56 | 1004.8 |
| 20260504215533 | 60 | 143 | 5.0 | 9.0 | 0.00 | 0.00 | 0.00 | 56 | 1004.8 |
| 20260504214951 | 60 | 145 | 4.0 | 11.0 | 0.00 | 0.00 | 0.00 | 55 | 1004.8 |
| 20260504214617 | 60 | 104 | 5.0 | 11.0 | 0.00 | 0.00 | 0.00 | 55 | 1004.8 |
| 20260504214450 | 60 | 122 | 4.0 | 10.0 | 0.00 | 0.00 | 0.00 | 56 | 1004.8 |
| 20260504213950 | 60 | 162 | 3.0 | 11.0 | 0.00 | 0.00 | 0.00 | 56 | 1004.8 |
| 20260504213407 | 60 | 103 | 5.0 | 12.0 | 0.00 | 0.00 | 0.00 | 56 | 1005.0 |
| 20260504213113 | 60 | 137 | 0.0 | 9.0 | 0.00 | 0.00 | 0.00 | 60 | 1004.9 |
| 20260504212846 | 59 | 139 | 5.0 | 9.0 | 0.00 | 0.00 | 0.00 | 58 | 1004.9 |
| 20260504212324 | 59 | 158 | 3.0 | 9.0 | 0.00 | 0.00 | 0.00 | 58 | 1004.8 |
| 20260504211824 | 59 | 137 | 5.0 | 9.0 | 0.00 | 0.00 | 0.00 | 58 | 1004.7 |
| 20260504211540 | 59 | 103 | 2.0 | 8.0 | 0.00 | 0.00 | 0.00 | 58 | 1004.6 |
| 20260504211303 | 59 | 116 | 5.0 | 10.0 | 0.00 | 0.00 | 0.00 | 59 | 1004.5 |
| 20260504210802 | 59 | 104 | 5.0 | 10.0 | 0.00 | 0.00 | 0.00 | 59 | 1004.7 |
| 20260504210241 | 59 | 162 | 4.0 | 12.0 | 0.00 | 0.00 | 0.00 | 59 | 1004.6 |
| 20260504210027 | 59 | 195 | 5.0 | 15.0 | 0.00 | 0.00 | 0.00 | 59 | 1004.6 |
| 20260504205741 | 59 | 140 | 4.0 | 15.0 | 0.00 | 0.00 | 0.00 | 59 | 1004.6 |
| 20260504205240 | 59 | 140 | 4.0 | 14.0 | 0.00 | 0.00 | 0.00 | 60 | 1004.6 |
| 20260504204740 | 59 | 136 | 6.0 | 14.0 | 0.00 | 0.00 | 0.00 | 59 | 1004.7 |
| 20260504204505 | 59 | 130 | 4.0 | 14.0 | 0.00 | 0.00 | 0.00 | 60 | 1004.6 |
| 20260504204240 | 59 | 98 | 5.0 | 14.0 | 0.00 | 0.00 | 0.00 | 58 | 1004.6 |
| 20260504203740 | 58 | 100 | 5.0 | 13.0 | 0.00 | 0.00 | 0.00 | 59 | 1004.6 |
| 20260504203240 | 58 | 119 | 5.0 | 13.0 | 0.00 | 0.00 | 0.00 | 60 | 1004.6 |
| 20260504202739 | 58 | 103 | 7.0 | 14.0 | 0.00 | 0.00 | 0.00 | 59 | 1004.7 |
| 20260504202239 | 58 | 184 | 7.0 | 12.0 | 0.00 | 0.00 | 0.00 | 59 | 1004.6 |
| 20260504201718 | 58 | 147 | 5.0 | 15.0 | 0.00 | 0.00 | 0.00 | 60 | 1004.6 |
| 20260504201218 | 58 | 114 | 8.0 | 15.0 | 0.00 | 0.00 | 0.00 | 59 | 1004.7 |
| 20260504200717 | 58 | 108 | 4.0 | 18.0 | 0.00 | 0.00 | 0.00 | 60 | 1004.6 |
| 20260504200217 | 58 | 73 | 9.0 | 18.0 | 0.00 | 0.00 | 0.00 | 59 | 1004.5 |
| 20260504195717 | 58 | 154 | 7.0 | 18.0 | 0.00 | 0.00 | 0.00 | 59 | 1004.4 |
| 20260504195216 | 58 | 81 | 10.0 | 18.0 | 0.00 | 0.00 | 0.00 | 58 | 1004.4 |
| 20260504194716 | 59 | 95 | 7.0 | 16.0 | 0.00 | 0.00 | 0.00 | 59 | 1004.4 |
| 20260504194216 | 59 | 147 | 4.0 | 15.0 | 0.00 | 0.00 | 0.00 | 60 | 1004.4 |
| 20260504193655 | 58 | 108 | 5.0 | 17.0 | 0.00 | 0.00 | 0.00 | 60 | 1004.3 |
| 20260504193154 | 59 | 107 | 8.0 | 17.0 | 0.00 | 0.00 | 0.00 | 59 | 1004.4 |
| 20260504192654 | 59 | 68 | 10.0 | 17.0 | 0.00 | 0.00 | 0.00 | 58 | 1004.5 |
| 20260504192154 | 59 | 141 | 7.0 | 19.0 | 0.00 | 0.00 | 0.00 | 61 | 1004.4 |
| 20260504191653 | 58 | 71 | 9.0 | 19.0 | 0.00 | 0.00 | 0.00 | 61 | 1004.4 |
| 20260504191153 | 58 | 83 | 8.0 | 18.0 | 0.00 | 0.00 | 0.00 | 61 | 1004.3 |
| 20260504190653 | 58 | 62 | 8.0 | 18.0 | 0.00 | 0.00 | 0.00 | 61 | 1004.4 |
| 20260504190153 | 58 | 151 | 4.0 | 16.0 | 0.00 | 0.00 | 0.00 | 61 | 1004.4 |
| 20260504185631 | 59 | 52 | 9.0 | 16.0 | 0.00 | 0.02 | 0.00 | 60 | 1004.4 |
| 20260504185131 | 59 | 62 | 6.0 | 17.0 | 0.00 | 0.02 | 0.00 | 63 | 1004.5 |
| 20260504184548 | 59 | 87 | 10.0 | 17.0 | 0.00 | 0.02 | 0.00 | 62 | 1004.5 |
| 20260504184048 | 57 | 54 | 8.0 | 14.0 | 0.00 | 0.02 | 0.00 | 68 | 1004.5 |
| 20260504183548 | 56 | 23 | 6.0 | 16.0 | 0.00 | 0.02 | 0.00 | 68 | 1004.6 |
| 20260504183048 | 55 | 112 | 9.0 | 18.0 | 0.00 | 0.02 | 0.00 | 68 | 1004.7 |
| 20260504182526 | 55 | 78 | 8.0 | 23.0 | 0.00 | 0.02 | 0.00 | 68 | 1004.8 |
| 20260504182026 | 55 | 37 | 6.0 | 16.0 | 0.00 | 0.02 | 0.00 | 69 | 1004.8 |
| 20260504181525 | 55 | 91 | 9.0 | 16.0 | 0.00 | 0.02 | 0.00 | 68 | 1004.8 |
| 20260504181025 | 55 | 75 | 5.0 | 17.0 | 0.00 | 0.02 | 0.00 | 68 | 1004.9 |
| 20260504180525 | 55 | 67 | 8.0 | 17.0 | 0.00 | 0.02 | 0.00 | 69 | 1005.0 |
| 20260504180201 | 55 | 31 | 6.0 | 15.0 | 0.00 | 0.02 | 0.00 | 68 | 1005.1 |
| 20260504180025 | 55 | 56 | 4.0 | 15.0 | 0.00 | 0.02 | 0.00 | 69 | 1005.0 |
| 20260504175524 | 54 | 51 | 7.0 | 15.0 | 0.00 | 0.04 | 0.00 | 68 | 1005.1 |
| 20260504175024 | 54 | 58 | 5.0 | 15.0 | 0.00 | 0.04 | 0.00 | 71 | 1005.1 |
| 20260504174646 | 54 | 11 | 5.0 | 15.0 | 0.00 | 0.04 | 0.00 | 70 | 1005.1 |
| 20260504174523 | 54 | 54 | 4.0 | 10.0 | 0.00 | 0.04 | 0.00 | 70 | 1005.1 |
| 20260504174023 | 54 | 69 | 5.0 | 13.0 | 0.00 | 0.04 | 0.00 | 70 | 1005.2 |
| 20260504173523 | 53 | 43 | 6.0 | 13.0 | 0.00 | 0.04 | 0.00 | 69 | 1005.3 |
| 20260504173130 | 54 | 92 | 6.0 | 12.0 | 0.00 | 0.04 | 0.00 | 68 | 1005.4 |
| 20260504173022 | 54 | 86 | 6.0 | 12.0 | 0.00 | 0.04 | 0.00 | 68 | 1005.4 |
| 20260504172522 | 54 | 82 | 6.0 | 11.0 | 0.00 | 0.04 | 0.00 | 67 | 1005.3 |
| 20260504172022 | 54 | 66 | 3.0 | 15.0 | 0.00 | 0.04 | 0.00 | 68 | 1005.2 |
| 20260504171615 | 53 | 54 | 6.0 | 15.0 | 0.00 | 0.04 | 0.00 | 68 | 1005.3 |
| 20260504171522 | 54 | 104 | 5.0 | 15.0 | 0.00 | 0.04 | 0.00 | 67 | 1005.2 |
| 20260504171021 | 54 | 115 | 7.0 | 14.0 | 0.00 | 0.04 | 0.00 | 67 | 1005.2 |
| 20260504170521 | 53 | 98 | 4.0 | 12.0 | 0.00 | 0.04 | 0.00 | 68 | 1005.2 |
| 20260504150932 | 54 | 54 | 7.0 | 12.0 | 0.00 | 0.10 | 0.00 | 56 | 1005.1 |
| 20260504150431 | 54 | 83 | 7.0 | 13.0 | 0.00 | 0.10 | 0.00 | 53 | 1005.1 |
| 20260504140928 | 53 | 61 | 1.0 | 11.0 | 0.00 | 0.14 | 0.00 | 58 | 1006.1 |
| 20260504140427 | 52 | 27 | 6.0 | 12.0 | 0.00 | 0.14 | 0.00 | 59 | 1006.1 |
| 20260504130341 | 50 | 57 | 5.0 | 10.0 | 0.00 | 0.18 | 0.00 | 57 | 1006.6 |
| 20260504130116 | 50 | 43 | 6.0 | 10.0 | 0.00 | 0.18 | 0.00 | 58 | 1006.6 |
| 20260504120256 | 43 | 45 | 2.0 | 6.0 | 0.00 | 0.23 | 0.00 | 74 | 1007.0 |
| 20260504110710 | 38 | 23 | 2.0 | 6.0 | 0.00 | 0.29 | 0.00 | 80 | 1006.8 |
| 20260504110149 | 38 | 48 | 3.0 | 6.0 | 0.00 | 0.29 | 0.00 | 80 | 1006.9 |
| 20260504100124 | 30 | 357 | 1.0 | 4.0 | 0.00 | 0.34 | 0.00 | 95 | 1006.7 |
| 20260504081953 | 30 | 41 | 1.0 | 3.0 | 0.00 | 0.39 | 0.00 | 94 | 1006.2 |
| 20260504081550 | 30 | 41 | 0.0 | 2.0 | 0.00 | 0.39 | 0.00 | 94 | 1006.3 |
| 20260504081452 | 30 | 41 | 0.0 | 2.0 | 0.00 | 0.39 | 0.00 | 94 | 1006.2 |
| 20260504080931 | 30 | 41 | 1.0 | 2.0 | 0.00 | 0.39 | 0.00 | 94 | 1006.3 |
| 20260504080431 | 30 | 41 | 0.0 | 2.0 | 0.00 | 0.39 | 0.00 | 94 | 1006.3 |
| 20260504070345 | 31 | 48 | 1.0 | 3.0 | 0.00 | 0.40 | 0.00 | 90 | 1006.1 |
| 20260504060216 | 33 | 90 | 1.0 | 3.0 | 0.00 | 0.41 | 0.00 | 87 | 1005.8 |
| 20260504050528 | 34 | 117 | 1.0 | 5.0 | 0.00 | 0.41 | 0.00 | 86 | 1005.7 |
| 20260504045527 | 33 | 122 | 1.0 | 5.0 | 0.00 | 0.42 | 0.00 | 88 | 1005.8 |
| 20260504045027 | 34 | 124 | 1.0 | 3.0 | 0.00 | 0.42 | 0.00 | 88 | 1005.8 |
| 20260504044646 | 34 | 124 | 1.0 | 5.0 | 0.00 | 0.42 | 0.00 | 87 | 1005.9 |
| 20260504044526 | 34 | 125 | 1.0 | 5.0 | 0.00 | 0.42 | 0.00 | 87 | 1005.8 |
| 20260504044026 | 34 | 124 | 2.0 | 5.0 | 0.00 | 0.42 | 0.00 | 86 | 1005.8 |
| 20260504043526 | 34 | 129 | 0.0 | 3.0 | 0.00 | 0.42 | 0.00 | 88 | 1005.8 |
| 20260504043132 | 34 | 129 | 0.0 | 3.0 | 0.00 | 0.42 | 0.00 | 88 | 1005.9 |
| 20260504043026 | 34 | 129 | 0.0 | 3.0 | 0.00 | 0.42 | 0.00 | 87 | 1005.8 |
| 20260504042525 | 35 | 129 | 1.0 | 3.0 | 0.00 | 0.42 | 0.00 | 86 | 1005.8 |
| 20260504042025 | 35 | 130 | 0.0 | 3.0 | 0.00 | 0.42 | 0.00 | 86 | 1005.8 |
| 20260504041612 | 36 | 130 | 0.0 | 3.0 | 0.00 | 0.42 | 0.00 | 85 | 1005.8 |
| 20260504041525 | 36 | 131 | 0.0 | 3.0 | 0.00 | 0.42 | 0.00 | 84 | 1005.7 |
| 20260504041024 | 36 | 131 | 0.0 | 5.0 | 0.00 | 0.42 | 0.00 | 81 | 1005.7 |
| 20260504040442 | 37 | 131 | 1.0 | 5.0 | 0.00 | 0.42 | 0.00 | 79 | 1005.6 |
| 20260504040051 | 37 | 127 | 1.0 | 5.0 | 0.00 | 0.42 | 0.00 | 75 | 1005.6 |
| 20260504035942 | 37 | 127 | 2.0 | 5.0 | 0.00 | 0.42 | 0.42 | 75 | 1005.5 |
| 20260504035420 | 37 | 110 | 1.0 | 4.0 | 0.00 | 0.42 | 0.42 | 75 | 1005.5 |
| 20260504034920 | 37 | 104 | 1.0 | 4.0 | 0.00 | 0.42 | 0.42 | 73 | 1005.4 |
| 20260504034536 | 38 | 97 | 0.0 | 4.0 | 0.00 | 0.42 | 0.42 | 74 | 1005.4 |
| 20260504034419 | 38 | 97 | 0.0 | 4.0 | 0.00 | 0.42 | 0.42 | 73 | 1005.3 |
| 20260504033919 | 38 | 99 | 1.0 | 7.0 | 0.00 | 0.42 | 0.42 | 72 | 1005.3 |
| 20260504033419 | 38 | 79 | 2.0 | 7.0 | 0.00 | 0.42 | 0.42 | 72 | 1005.2 |
| 20260504033036 | 38 | 114 | 2.0 | 6.0 | 0.00 | 0.42 | 0.42 | 71 | 1005.2 |
| 20260504032919 | 38 | 129 | 2.0 | 6.0 | 0.00 | 0.42 | 0.42 | 71 | 1005.1 |
| 20260504032418 | 38 | 129 | 1.0 | 3.0 | 0.00 | 0.42 | 0.42 | 71 | 1005.2 |
| 20260504031918 | 38 | 130 | 1.0 | 5.0 | 0.00 | 0.42 | 0.42 | 72 | 1005.2 |
| 20260504031507 | 38 | 133 | 0.0 | 5.0 | 0.00 | 0.42 | 0.42 | 70 | 1005.2 |
| 20260504031417 | 39 | 133 | 1.0 | 5.0 | 0.00 | 0.42 | 0.42 | 70 | 1005.2 |
| 20260504030856 | 39 | 112 | 1.0 | 4.0 | 0.00 | 0.42 | 0.42 | 69 | 1005.1 |
| 20260504030356 | 39 | 146 | 2.0 | 6.0 | 0.00 | 0.42 | 0.42 | 68 | 1005.0 |
| 20260504025855 | 39 | 163 | 2.0 | 4.0 | 0.00 | 0.43 | 0.42 | 68 | 1005.0 |
| 20260504025355 | 40 | 145 | 1.0 | 7.0 | 0.00 | 0.43 | 0.42 | 68 | 1004.9 |
| 20260504024855 | 40 | 147 | 2.0 | 7.0 | 0.00 | 0.43 | 0.42 | 66 | 1004.9 |
| 20260504024333 | 40 | 110 | 2.0 | 8.0 | 0.00 | 0.43 | 0.42 | 65 | 1004.9 |
| 20260504023833 | 40 | 134 | 3.0 | 8.0 | 0.00 | 0.43 | 0.42 | 64 | 1004.9 |
| 20260504023332 | 40 | 149 | 3.0 | 9.0 | 0.00 | 0.43 | 0.42 | 65 | 1004.9 |
| 20260504022811 | 40 | 137 | 3.0 | 9.0 | 0.00 | 0.43 | 0.42 | 66 | 1004.9 |
| 20260504022310 | 40 | 127 | 3.0 | 8.0 | 0.00 | 0.43 | 0.42 | 67 | 1004.9 |
| 20260504021810 | 40 | 141 | 2.0 | 5.0 | 0.00 | 0.43 | 0.42 | 65 | 1004.9 |
| 20260504021249 | 40 | 167 | 2.0 | 8.0 | 0.00 | 0.43 | 0.42 | 65 | 1004.8 |
| 20260504020749 | 41 | 116 | 2.0 | 8.0 | 0.00 | 0.43 | 0.42 | 64 | 1004.8 |
| 20260504020248 | 41 | 117 | 3.0 | 7.0 | 0.00 | 0.43 | 0.42 | 63 | 1004.8 |
| 20260504015748 | 41 | 151 | 3.0 | 7.0 | 0.00 | 0.44 | 0.42 | 62 | 1004.7 |
| 20260504015247 | 41 | 139 | 2.0 | 10.0 | 0.00 | 0.44 | 0.42 | 62 | 1004.7 |
| 20260504014726 | 41 | 145 | 2.0 | 10.0 | 0.00 | 0.44 | 0.42 | 63 | 1004.6 |
| 20260504014226 | 41 | 119 | 3.0 | 9.0 | 0.00 | 0.44 | 0.42 | 62 | 1004.6 |
| 20260504013725 | 41 | 144 | 2.0 | 6.0 | 0.00 | 0.44 | 0.42 | 63 | 1004.6 |
| 20260504013225 | 42 | 168 | 2.0 | 7.0 | 0.00 | 0.44 | 0.42 | 62 | 1004.6 |
| 20260504012725 | 42 | 149 | 2.0 | 8.0 | 0.00 | 0.44 | 0.42 | 59 | 1004.6 |
| 20260504012203 | 42 | 135 | 3.0 | 9.0 | 0.00 | 0.44 | 0.42 | 58 | 1004.6 |
| 20260504011703 | 42 | 108 | 3.0 | 9.0 | 0.00 | 0.44 | 0.42 | 59 | 1004.6 |
| 20260504011202 | 43 | 135 | 4.0 | 9.0 | 0.00 | 0.44 | 0.42 | 58 | 1004.5 |
| 20260504010702 | 43 | 189 | 5.0 | 10.0 | 0.00 | 0.44 | 0.42 | 57 | 1004.4 |
| 20260504010202 | 43 | 168 | 4.0 | 11.0 | 0.00 | 0.44 | 0.42 | 58 | 1004.4 |
| 20260504005701 | 43 | 119 | 4.0 | 11.0 | 0.00 | 0.49 | 0.42 | 56 | 1004.3 |
| 20260504005201 | 43 | 139 | 4.0 | 14.0 | 0.00 | 0.49 | 0.42 | 56 | 1004.2 |
| 20260504004701 | 44 | 139 | 5.0 | 14.0 | 0.00 | 0.49 | 0.42 | 56 | 1004.0 |
| 20260504004200 | 44 | 190 | 5.0 | 13.0 | 0.00 | 0.49 | 0.42 | 56 | 1004.0 |
| 20260504003700 | 44 | 139 | 8.0 | 16.0 | 0.00 | 0.49 | 0.42 | 55 | 1003.9 |
| 20260504003200 | 44 | 158 | 6.0 | 13.0 | 0.00 | 0.49 | 0.42 | 56 | 1003.8 |
| 20260504003157 | 44 | 158 | 6.0 | 13.0 | 0.00 | 0.49 | 0.42 | 56 | 1003.9 |
| 20260504002659 | 44 | 83 | 3.0 | 10.0 | 0.00 | 0.49 | 0.42 | 58 | 1003.8 |
| 20260504002159 | 44 | 124 | 4.0 | 10.0 | 0.00 | 0.49 | 0.42 | 55 | 1003.6 |
| 20260504001659 | 45 | 131 | 4.0 | 13.0 | 0.00 | 0.49 | 0.42 | 55 | 1003.6 |
| 20260504001641 | 45 | 124 | 4.0 | 13.0 | 0.00 | 0.49 | 0.42 | 54 | 1003.7 |
| 20260504001158 | 45 | 171 | 5.0 | 12.0 | 0.00 | 0.49 | 0.42 | 54 | 1003.6 |
| 20260504000637 | 45 | 160 | 5.0 | 15.0 | 0.00 | 0.49 | 0.42 | 53 | 1003.4 |
| 20260504000124 | 46 | 181 | 6.0 | 19.0 | 0.00 | 0.49 | 0.42 | 53 | 1003.4 |
| 20260504000115 | 46 | 182 | 6.0 | 19.0 | 0.00 | 0.49 | 0.42 | 53 | 1003.3 |
| 20260503235615 | 46 | 182 | 9.0 | 19.0 | 0.00 | 0.51 | 0.42 | 53 | 1003.3 |
| 20260503235115 | 46 | 141 | 5.0 | 16.0 | 0.00 | 0.51 | 0.42 | 54 | 1003.3 |
| 20260503234615 | 46 | 110 | 5.0 | 12.0 | 0.00 | 0.51 | 0.42 | 54 | 1003.1 |
| 20260503234608 | 46 | 121 | 5.0 | 12.0 | 0.00 | 0.51 | 0.42 | 54 | 1003.2 |
| 20260503234114 | 47 | 147 | 5.0 | 18.0 | 0.00 | 0.51 | 0.42 | 53 | 1003.1 |
| 20260503233614 | 47 | 183 | 12.0 | 18.0 | 0.00 | 0.51 | 0.42 | 51 | 1002.9 |
| 20260503233113 | 47 | 114 | 6.0 | 18.0 | 0.00 | 0.51 | 0.42 | 54 | 1002.8 |
| 20260503233054 | 47 | 156 | 6.0 | 18.0 | 0.00 | 0.51 | 0.42 | 54 | 1002.9 |
| 20260503232531 | 48 | 143 | 5.0 | 21.0 | 0.00 | 0.51 | 0.42 | 51 | 1002.7 |
| 20260503232030 | 48 | 187 | 8.0 | 21.0 | 0.00 | 0.51 | 0.42 | 50 | 1002.6 |
| 20260503231536 | 48 | 124 | 10.0 | 21.0 | 0.00 | 0.51 | 0.42 | 51 | 1002.6 |
| 20260503231530 | 48 | 143 | 10.0 | 21.0 | 0.00 | 0.51 | 0.42 | 51 | 1002.5 |
| 20260503231030 | 48 | 136 | 7.0 | 21.0 | 0.00 | 0.51 | 0.42 | 51 | 1002.5 |
| 20260503230530 | 48 | 137 | 8.0 | 20.0 | 0.00 | 0.51 | 0.42 | 52 | 1002.4 |
| 20260503230022 | 48 | 142 | 8.0 | 20.0 | 0.00 | 0.51 | 0.42 | 50 | 1002.3 |
| 20260503230008 | 48 | 131 | 9.0 | 20.0 | 0.00 | 0.51 | 0.42 | 50 | 1002.3 |
| 20260503225508 | 48 | 118 | 9.0 | 19.0 | 0.00 | 0.51 | 0.42 | 51 | 1002.3 |
| 20260503225007 | 48 | 177 | 8.0 | 19.0 | 0.00 | 0.51 | 0.42 | 52 | 1002.2 |
| 20260503224507 | 48 | 168 | 7.0 | 19.0 | 0.00 | 0.51 | 0.42 | 55 | 1002.2 |
| 20260503224007 | 48 | 156 | 5.0 | 14.0 | 0.00 | 0.51 | 0.42 | 59 | 1002.1 |
| 20260503223506 | 48 | 114 | 6.0 | 13.0 | 0.00 | 0.51 | 0.42 | 61 | 1002.0 |
| 20260503222945 | 48 | 151 | 4.0 | 8.0 | 0.00 | 0.51 | 0.42 | 69 | 1001.9 |
| 20260503222445 | 48 | 112 | 3.0 | 6.0 | 0.00 | 0.51 | 0.42 | 74 | 1002.0 |